CAPE
0 0 0 0 0 0 0 0 0 0 0 0 0 0 0 0 0 0 0 0 0 0 0 0 0 0 0 0 0 0 0 0 0 0 0 169 400 639 1115 1390 1582 1787 1850 2062 2004 2083 2070 2104 2133 2071 2166 2264 2387 2416 2550 2808 2981 2909 2826 2792 2603 2517 2545
0 0 0 0 0 0 0 0 0 0 0 0 0 0 0 0 0 0 0 0 0 0 0 0 0 0 0 0 0 0 0 0 0 0 0 27 230 394 891 1361 1625 1773 1753 1930 1935 1934 1964 2023 2084 2146 2311 2287 2374 2476 2574 2798 2866 2995 2842 2754 2584 2535 2559
0 0 0 0 0 0 0 2 0 0 0 0 0 0 0 0 0 0 0 0 0 0 0 0 0 0 0 0 0 0 0 0 0 0 0 9 114 232 678 1245 1558 1673 1688 1742 1873 1779 1854 1998 2184 2200 2230 2216 2291 2412 2485 2529 2688 2743 2695 2526 2480 2523 2542
0 0 0 0 0 0 0 0 1 0 0 0 0 0 0 0 0 0 0 0 0 0 0 0 0 0 0 0 0 0 0 0 0 0 0 0 13 74 371 909 1310 1611 1674 1641 1726 1672 1724 1793 1999 2064 2114 2094 2094 2258 2382 2465 2498 2610 2644 2552 2515 2506 2415
0 0 0 0 0 0 0 0 0 1 8 1 0 0 0 0 0 0 0 0 0 0 0 0 0 0 0 0 0 0 0 0 0 0 0 0 2 4 1 333 1019 1466 1641 1519 1553 1615 1548 1612 1908 1977 1957 1959 1992 2060 2226 2303 2450 2375 2453 2361 2390 2566 2469
3 0 0 0 0 0 0 0 0 7 8 8 13 7 0 0 0 0 0 0 0 0 0 0 0 0 0 0 0 0 0 0 0 0 0 0 0 10 25 8 382 967 1554 1596 1591 1568 1523 1564 1761 1780 1745 1842 1834 1964 2136 2134 2153 2205 2223 2174 2334 2555 2528
0 0 0 6 3 1 1 2 2 4 4 4 14 3 0 0 0 0 0 0 0 0 0 0 0 0 0 0 0 0 0 0 0 0 0 0 0 26 62 73 63 531 1456 1693 1540 1628 1593 1502 1634 1694 1736 1735 1779 1939 1963 2020 1950 2021 2042 2016 2152 2575 2575
0 0 0 0 0 0 0 0 0 14 17 5 3 5 0 0 0 0 0 0 0 0 0 0 0 0 0 0 0 0 0 0 0 0 0 0 5 371 199 48 63 616 1479 1772 1666 1661 1689 1586 1697 1780 1738 1770 1830 1886 1855 1857 1816 1875 1947 2000 2105 2453 2571
0 0 0 6 5 6 6 10 12 8 5 41 10 0 0 0 0 0 0 0 0 0 0 0 0 0 0 0 0 0 0 0 0 0 0 0 150 596 310 205 436 883 1180 1579 1761 1754 1943 1761 1560 1751 1743 1750 1863 1850 1746 1740 1723 1752 1891 1978 2033 2277 2576
8 10 14 7 35 3 0 0 8 18 0 1 1 9 28 1 0 11 12 2 0 0 0 0 0 0 0 0 0 0 0 0 0 0 224 287 279 1072 1034 798 822 865 1188 1762 1993 2013 2017 1732 1568 1754 1919 1851 1796 1778 1775 1746 1771 1847 1894 2000 2040 2247 2488
8 4 40 0 0 0 4 40 21 0 2 5 3 0 37 11 6 6 12 14 8 8 0 0 0 0 0 0 30 1 1 2 0 0 0 0 69 696 1088 1221 992 1139 1548 1965 2114 2205 1962 1774 1624 1728 1791 1824 1725 1818 1848 1735 1786 1907 2010 2030 2174 2199 2488
0 0 4 1 0 0 0 0 0 3 0 0 2 6 7 13 3 8 8 4 2 6 1 12 164 681 1505 1196 1393 1332 1159 1269 1199 986 767 25 0 110 406 659 900 1279 1667 2048 2314 2280 2002 1770 1648 1718 1801 1787 1747 1857 1892 1818 1855 1906 1981 2155 2247 2350 2593
1 0 0 6 3 0 0 0 0 0 0 0 0 1 6 5 26 4 9 8 23 1 0 506 1156 1355 1686 1469 1522 1686 1574 1334 1668 1665 1621 1088 301 3 108 713 1062 1410 1513 2347 2675 2550 2201 1861 1695 1752 1790 1758 1810 1881 1916 1898 1814 1937 2135 2178 2281 2338 2586
0 0 0 0 15 12 1 1 0 0 0 0 0 2 2 7 11 22 6 22 38 6 377 682 1232 1452 1394 1469 1568 1532 1728 1517 1899 1838 1696 1513 1435 982 345 247 870 1528 1768 2505 3044 2870 2522 1982 1899 1775 1834 1894 1844 1903 1911 1850 1898 1905 2074 2220 2345 2389 2646
19 0 0 0 1 31 5 1 6 2 0 0 0 0 2 0 0 0 2 2 24 542 300 661 842 1272 1436 1160 1614 1532 1589 1586 1565 1684 1724 1851 2080 2195 2390 2706 472 1101 1589 1941 2918 3014 2760 2222 1953 1833 1832 1859 1826 1820 1891 1937 1968 1993 2060 2329 2425 2497 2682
1 0 0 0 0 0 8 11 7 5 1 0 0 8 61 21 19 25 10 6 8 44 16 286 485 818 1077 1260 1345 1398 1244 1246 1304 1451 1665 1728 2005 2145 2308 2618 2873 2232 780 1438 2115 2830 2595 2192 1975 1858 1998 1942 1904 1815 1952 1965 1945 1906 2156 2396 2460 2719 2746
2 0 0 0 0 0 14 3 8 6 2 0 205 115 28 39 155 138 1 33 224 0 8 60 451 662 806 1214 1384 1217 1178 1058 960 918 1002 1208 1532 1930 2257 2419 2622 2707 1918 682 1661 2266 2220 1932 1778 1890 2066 1989 2072 1957 2100 2113 2057 2033 2139 2342 2597 2902 2841
4 5 18 1 10 12 0 10 4 8 4 275 179 64 23 31 64 119 49 56 36 0 0 0 18 175 593 1435 1432 1016 511 340 197 183 227 423 748 1322 1841 2132 2423 2553 2350 1295 572 1940 2200 2067 1702 1856 2077 1990 2054 2000 2069 2170 2134 2198 2314 2534 2851 3011 3039
2 1 8 37 18 1 72 109 48 6 6 232 68 0 25 10 16 3 3 0 0 0 0 0 0 1 50 569 1337 714 681 522 432 400 325 68 272 583 1256 2034 2310 2584 2661 1697 404 788 2006 1922 1791 1858 1991 1942 2155 1969 2133 2193 2191 2444 2502 2777 3018 3184 3256
5 4 2 24 26 246 340 280 105 143 260 126 28 36 3 1 1 2 0 0 0 0 0 0 0 136 80 964 1066 773 845 732 549 414 368 288 444 447 1122 1691 2078 2509 2424 1795 568 282 1634 1881 1751 1808 1936 1984 2057 2040 2038 2140 2186 2366 2722 2910 3052 3238 3296
8 6 7 2 43 20 233 88 127 137 123 45 75 109 0 0 0 0 1 0 0 0 0 0 0 154 672 890 1493 724 712 750 703 548 466 452 666 564 1219 1792 2022 2399 2247 1653 815 367 1125 1634 1479 1762 1899 1999 1980 1901 1930 2108 2346 2342 2578 2976 3134 3393 3376
4 6 22 7 10 4 17 1 11 0 4 23 0 20 6 1 0 0 0 0 0 0 0 0 57 388 980 1051 930 541 628 659 659 612 551 613 757 716 1588 1932 2127 2429 1916 1297 902 772 1550 1638 1522 1754 1961 1948 1994 2030 1993 2153 2294 2373 2664 2897 3108 3416 3305
5 11 10 10 21 16 2 22 32 0 0 6 6 10 88 0 0 0 0 0 2 5 0 12 195 650 1138 728 0 215 528 528 558 566 613 702 755 952 1644 1809 1964 2404 2407 1645 1016 1104 1710 1603 1546 1879 2038 1977 2052 2159 2253 2270 2390 2560 2719 2874 3084 3392 3316
0 4 14 13 12 0 5 2 0 15 10 4 30 50 14 0 0 1 1 0 6 12 1 116 346 612 586 11 275 396 407 429 520 581 762 798 774 1004 1576 1695 2050 2240 2608 1869 1252 1586 1869 1809 1802 2193 1951 2076 2293 2344 2390 2428 2473 2745 2871 2956 3113 3245 3250
2 7 3 4 1 32 0 2 0 4 52 27 25 15 4 1 1 2 0 0 19 54 0 171 402 333 278 291 348 418 523 609 779 1024 1086 1078 1072 1000 1489 1778 2014 2609 2658 2125 1717 1611 1734 1900 1733 2065 2193 2266 2449 2674 2632 2614 2639 2746 2896 3018 3192 3398 3389
4 3 4 6 19 32 1 1 6 2 4 42 49 3 4 8 6 2 0 0 18 84 8 190 236 263 336 389 358 506 600 666 872 947 1125 1218 1240 1137 1339 1900 2050 2453 2480 2201 1813 1432 1913 2090 2372 2343 2319 2588 2845 2899 2682 2663 2779 2650 2865 3038 3138 3309 3427
3 8 13 17 16 14 0 4 0 4 48 16 4 11 8 5 3 2 0 2 21 5 56 164 234 235 281 330 463 619 767 930 1111 1225 1261 1402 1455 1394 1242 1747 2131 2014 2975 2360 1855 1677 1969 2125 1863 1959 2417 2811 2991 3059 2926 3077 2902 2866 2943 3140 3383 3544 3595
16 7 14 4 0 1 8 6 3 5 14 21 11 8 12 4 3 2 0 0 20 0 32 183 234 243 275 392 596 792 924 1072 1172 1374 1571 1583 1557 1632 1524 1522 2020 2527 2676 3343 3446 2113 2110 2310 2404 2586 2728 3291 3530 3358 3330 3380 3051 2985 3211 3511 3724 3810 3619
0 0 0 2 1 4 6 8 2 15 36 41 29 16 11 12 2 4 24 34 0 33 11 241 273 309 381 564 733 911 1082 1338 1466 1483 1545 1759 1852 1777 1726 1693 1926 2497 2268 2880 3337 3098 2406 2590 2609 2958 3144 3741 3880 3821 3866 3655 3368 3409 3658 3875 4067 4116 3902
6 11 1 1 0 3 6 28 33 22 19 21 21 13 12 11 7 3 0 6 75 168 225 297 298 374 530 734 951 1050 1156 1289 1338 1528 1952 2129 2104 2239 2093 1965 1961 2229 2635 2415 2835 3337 3662 3048 2900 3242 3340 3843 4232 4119 3982 3879 3616 3718 4047 4435 4491 4538 4366
6 1 0 4 1 1 22 8 4 19 25 23 28 26 23 24 10 6 5 2 50 5 45 350 399 453 638 844 1045 1100 1159 1296 1428 1629 1814 2147 2360 2391 2305 2161 2081 2249 2723 2832 2990 3245 3539 3722 3693 3693 3580 3834 4239 4225 4733 4103 3767 4528 4748 4969 4714 4692 4647
0 0 3 4 4 2 5 12 0 1 4 11 26 22 34 29 28 8 6 3 2 3 0 206 401 560 488 935 1098 1203 1244 1392 1462 1642 1754 2170 2353 2385 2508 2504 2244 2267 2299 2550 2988 3093 3238 3598 3959 4365 4732 4866 4926 5068 4807 4581 4614 4980 4832 4904 4773 4740 4753
26 0 1 2 4 7 6 1 0 7 10 12 14 10 25 37 41 10 8 5 5 1 34 344 227 466 528 881 1019 1214 1307 1454 1514 1668 1678 1847 2360 2422 2604 2653 2579 2317 2239 2320 2488 2865 3054 3432 3627 3922 4306 4557 4829 5042 4815 4578 4797 4960 4934 4865 4568 4602 4605
0 0 0 8 8 23 4 0 4 11 9 7 9 9 14 32 43 12 8 5 4 3 1 163 373 276 345 431 893 1252 1410 1486 1574 1638 1680 1678 2077 2426 2474 2635 2623 2545 2524 2452 2343 2522 3129 3404 3547 3634 3720 3996 4081 4149 4515 4804 5113 4908 4928 4871 4686 4724 4564
0 12 13 16 4 4 2 10 7 13 6 7 9 12 13 26 30 26 9 5 1 0 2 252 323 174 618 478 927 1162 1310 1365 1443 1554 1614 1671 1877 2208 2138 2157 2679 2592 2576 2526 2519 2485 2520 2690 2750 3202 3456 3606 3890 4006 4681 4929 4947 5118 5343 5149 4852 5049 5006
17 4 10 16 6 1 10 15 13 10 22 12 6 15 23 18 24 12 8 8 4 2 2 25 268 388 286 632 791 1065 1125 1224 1276 1389 1486 1486 1611 1978 1954 2155 2420 2682 2488 2532 2528 2482 2572 2700 2664 2656 2702 2842 3060 3361 3653 3974 4765 5039 4943 4956 4675 4732 4373
10 23 7 7 4 17 22 28 11 12 15 15 13 8 22 32 22 10 9 6 7 9 21 60 183 306 258 363 553 825 1091 1171 1244 1286 1324 1335 1402 1610 1809 1958 2138 2442 2605 2605 2525 2388 2383 2604 2706 2717 2822 2832 2949 3082 3188 3414 3886 4273 5036 4586 4291 4605 5074
Wind_Speed
nan nan nan nan nan nan nan nan nan nan nan nan nan nan nan nan nan nan nan nan nan nan nan nan nan nan nan nan nan nan nan nan nan nan nan 25 23 20 20 19 18 16 18 18 16 15 16 16 14 13 12 10 9 11 14 14 13 14 13 14 15 17 18
nan nan nan nan nan nan nan nan nan nan nan nan nan nan nan nan nan nan nan nan nan nan nan nan nan nan nan nan nan nan nan nan nan nan nan nan 23 21 20 19 19 19 19 19 16 16 19 19 17 15 14 12 11 11 14 16 15 13 13 15 16 18 18
nan nan nan nan nan nan nan nan nan nan nan nan nan nan nan nan nan nan nan nan nan nan nan nan nan nan nan nan nan nan nan nan nan nan nan nan 23 23 23 21 22 22 20 19 17 16 18 19 18 17 16 14 13 12 14 15 14 13 15 19 20 22 20
nan nan nan nan nan nan nan nan nan nan nan nan nan nan nan nan nan nan nan nan nan nan nan nan nan nan nan nan nan nan nan nan nan nan nan nan nan nan 24 24 23 22 20 19 18 17 18 19 20 19 18 15 15 13 14 14 17 18 19 19 20 20 19
nan nan nan nan nan nan nan nan nan nan nan nan nan nan nan nan nan nan nan nan nan nan nan nan nan nan nan nan nan nan nan nan nan nan nan nan nan nan nan 24 23 21 20 19 18 17 18 19 21 20 19 16 15 15 14 14 17 16 15 16 18 21 22
nan nan nan nan nan nan nan nan nan nan nan nan nan nan nan nan nan nan nan nan nan nan nan nan nan nan nan nan nan nan nan nan nan nan nan nan nan nan nan nan 21 21 21 20 19 20 21 23 22 21 20 18 17 16 14 15 16 17 16 16 18 21 22
nan nan nan nan nan nan nan nan nan nan nan nan nan nan nan nan nan nan nan nan nan nan nan nan nan nan nan nan nan nan nan nan nan nan nan nan nan nan nan nan nan 21 22 22 22 23 24 24 23 22 22 21 19 17 16 16 15 15 16 16 18 22 23
nan nan nan nan nan nan nan nan nan nan nan nan nan nan nan nan nan nan nan nan nan nan nan nan nan nan nan nan nan nan nan nan nan nan nan nan nan 24 23 nan nan 24 25 25 26 25 24 23 23 23 23 22 20 19 18 16 14 15 17 19 19 21 22
nan nan nan nan nan nan nan nan nan nan nan nan nan nan nan nan nan nan nan nan nan nan nan nan nan nan nan nan nan nan nan nan nan nan nan nan 25 25 23 24 24 25 26 28 27 26 25 24 24 24 23 22 22 21 18 17 16 16 18 20 20 20 21
nan nan nan nan nan nan nan nan nan nan nan nan nan nan nan nan nan nan nan nan nan nan nan nan nan nan nan nan nan nan nan nan nan nan 46 42 35 35 33 30 28 26 28 28 26 26 26 24 24 25 24 23 22 22 19 18 18 18 18 20 20 20 22
nan nan nan nan nan nan nan nan nan nan nan nan nan nan nan nan nan nan nan nan nan nan nan nan nan nan nan nan nan nan nan nan nan nan nan nan nan 39 37 35 34 32 31 28 26 24 24 23 24 25 25 24 23 23 21 20 20 20 20 21 21 21 21
nan nan nan nan nan nan nan nan nan nan nan nan nan nan nan nan nan nan nan nan nan nan nan nan 40 42 47 44 44 48 50 52 52 50 47 nan nan 43 40 36 33 30 28 28 26 24 22 24 25 25 25 25 24 24 23 22 21 21 22 21 21 22 22
nan nan nan nan nan nan nan nan nan nan nan nan nan nan nan nan nan nan nan nan nan nan nan 53 49 49 49 47 47 50 54 57 58 56 55 53 49 nan 42 38 34 31 28 28 27 26 24 24 24 25 26 26 27 26 25 23 22 22 22 22 22 22 23
nan nan nan nan nan nan nan nan nan nan nan nan nan nan nan nan nan nan nan nan nan nan 55 55 52 48 50 50 48 52 59 62 63 62 61 60 60 57 52 41 35 31 28 27 27 28 27 24 23 24 27 28 27 27 26 24 23 24 24 23 23 23 22
nan nan nan nan nan nan nan nan nan nan nan nan nan nan nan nan nan nan nan nan nan 60 60 56 51 48 48 50 53 56 60 65 67 67 67 65 65 63 59 56 46 35 30 28 28 28 28 25 21 22 25 26 27 27 26 24 24 25 26 25 23 23 22
nan nan nan nan nan nan nan nan nan nan nan nan nan nan nan nan nan nan nan nan nan nan nan 54 49 46 49 52 54 55 60 67 69 70 69 68 66 65 63 59 54 49 39 32 30 27 26 25 21 19 23 25 27 26 24 23 25 26 26 25 24 25 25
nan nan nan nan nan nan nan nan nan nan nan nan 75 72 nan nan 63 52 nan nan 69 nan nan nan 53 51 48 51 55 55 59 64 67 69 69 68 67 66 63 60 56 51 46 39 32 27 26 26 23 17 19 23 25 24 22 22 26 26 26 26 27 27 27
nan nan nan nan nan nan nan nan nan nan nan 58 66 nan nan nan nan 56 nan nan nan nan nan nan nan 52 49 50 53 54 55 59 65 67 68 67 67 65 62 60 56 54 50 44 37 29 28 25 19 17 18 20 23 24 24 24 25 26 27 27 28 28 28
nan nan nan nan nan nan nan 49 nan nan nan 56 nan nan nan nan nan nan nan nan nan nan nan nan nan nan nan 42 49 53 56 59 61 65 66 nan 65 63 60 59 58 56 53 44 36 31 26 22 21 22 22 22 28 28 25 23 25 27 28 28 29 29 29
nan nan nan nan nan 38 42 54 69 70 66 72 nan nan nan nan nan nan nan nan nan nan nan nan nan 47 nan 39 50 56 58 61 61 64 65 65 64 62 59 58 57 54 49 43 34 29 28 26 25 23 21 22 26 26 24 24 26 27 29 29 30 30 30
nan nan nan nan nan nan 35 nan 63 66 63 nan nan 66 nan nan nan nan nan nan nan nan nan nan nan 50 41 35 41 61 60 62 62 63 64 63 62 61 58 56 55 52 48 40 35 32 32 29 26 23 22 23 27 28 26 26 27 27 29 29 30 31 29
nan nan nan nan nan nan nan nan nan nan nan nan nan nan nan nan nan nan nan nan nan nan nan nan nan 50 39 35 40 59 60 61 62 62 62 62 61 59 58 56 54 51 45 39 34 33 31 27 26 27 25 26 30 31 28 28 27 28 29 28 30 31 29
nan nan nan nan nan nan nan nan nan nan nan nan nan nan nan nan nan nan nan nan nan nan nan nan 61 49 37 43 nan 56 57 58 59 59 59 59 58 57 56 55 53 51 46 38 35 35 33 28 30 30 26 26 32 33 31 30 29 28 28 29 30 29 28
nan nan nan nan nan nan nan nan nan nan nan nan nan nan nan nan nan nan nan nan nan nan nan 63 61 59 54 nan 54 53 52 53 53 53 53 54 55 54 52 48 48 45 42 37 36 38 35 33 34 32 28 30 35 36 34 32 29 27 27 28 28 28 29
nan nan nan nan nan nan nan nan nan nan nan nan nan nan nan nan nan nan nan nan nan nan nan 64 59 58 56 55 50 49 51 53 54 53 51 50 49 49 47 46 46 42 39 36 36 36 37 36 37 36 32 33 38 39 35 31 26 25 27 29 28 29 28
nan nan nan nan nan nan nan nan nan nan nan nan nan nan nan nan nan nan nan nan nan nan nan 63 60 58 58 56 53 52 52 52 51 50 49 48 48 46 43 44 40 41 37 34 33 35 38 37 39 36 33 36 40 38 33 27 24 27 30 28 27 27 27
nan nan nan nan nan nan nan nan nan nan nan nan nan nan nan nan nan nan nan nan nan nan nan 63 61 59 59 58 57 54 52 53 54 52 50 47 46 44 42 42 43 38 39 36 33 32 34 36 39 37 33 38 41 36 28 26 29 30 28 26 26 26 26
nan nan nan nan nan nan nan nan nan nan nan nan nan nan nan nan nan nan nan nan nan nan nan 63 62 60 58 59 60 57 54 55 54 50 49 49 48 48 46 43 44 41 35 39 36 29 35 38 40 38 37 40 38 30 27 32 32 30 27 25 25 26 26
nan nan nan nan nan nan nan nan nan nan nan nan nan nan nan nan nan nan nan nan nan nan nan 62 61 60 60 60 61 59 57 58 58 55 53 49 46 48 48 46 46 42 34 32 37 37 34 36 40 39 39 37 32 28 31 33 30 28 26 25 25 24 24
nan nan nan nan nan nan nan nan nan nan nan nan nan nan nan nan nan nan nan nan nan 61 62 62 61 60 60 61 61 61 59 59 57 55 54 53 54 54 51 49 46 44 35 31 32 36 43 43 41 40 39 35 30 30 32 31 29 28 26 25 23 23 23
nan nan nan nan nan nan nan nan nan nan nan nan nan nan nan nan nan nan nan nan nan nan nan 61 61 60 61 61 61 61 61 60 59 58 57 57 56 54 51 44 42 44 42 37 38 38 44 45 43 42 39 35 32 33 34 32 30 29 26 25 24 23 23
nan nan nan nan nan nan nan nan nan nan nan nan nan nan nan nan nan nan nan nan nan nan nan 59 61 59 59 61 61 62 63 62 60 59 59 62 62 58 52 46 45 43 45 45 44 45 47 49 47 45 43 39 35 36 35 33 32 31 28 27 26 25 25
nan nan nan nan nan nan nan nan nan nan nan nan nan nan nan nan nan nan nan nan nan nan nan 56 59 59 60 61 61 63 64 63 61 60 61 62 59 55 56 51 47 43 44 48 52 53 52 49 47 46 46 44 42 41 39 34 32 30 30 29 29 28 27
nan nan nan nan nan nan nan nan nan nan nan nan nan nan nan nan nan nan nan nan nan nan nan 53 59 59 58 61 62 64 65 65 63 63 63 62 61 60 56 51 49 47 48 49 53 56 55 54 52 50 49 47 45 41 38 35 33 31 31 31 30 30 29
nan nan nan nan nan nan nan nan nan nan nan nan nan nan nan nan nan nan nan nan nan nan nan 52 58 59 57 60 63 64 66 66 64 63 64 64 63 61 60 56 54 52 52 53 54 58 59 56 54 53 51 49 45 43 42 37 32 32 32 34 34 33 32
nan nan nan nan nan nan nan nan nan nan nan nan nan nan nan nan nan nan nan nan nan nan nan nan 57 60 58 59 62 66 68 67 66 65 65 65 64 62 59 56 54 54 54 54 55 57 58 58 57 55 54 53 51 47 44 42 38 36 35 36 36 35 34
nan nan nan nan nan nan nan nan nan nan nan nan nan nan nan nan nan nan nan nan nan nan nan nan 55 58 59 58 59 64 68 68 66 67 67 66 66 65 62 62 61 55 51 50 52 55 57 58 57 57 57 55 53 50 46 43 40 39 39 39 37 38 40
Wind_Direction
nan nan nan nan nan nan nan nan nan nan nan nan nan nan nan nan nan nan nan nan nan nan nan nan nan nan nan nan nan nan nan nan nan nan nan 226 225 224 231 240 249 265 272 280 288 299 295 299 309 316 309 299 276 239 227 231 232 229 226 220 218 216 217
nan nan nan nan nan nan nan nan nan nan nan nan nan nan nan nan nan nan nan nan nan nan nan nan nan nan nan nan nan nan nan nan nan nan nan nan 225 226 233 240 248 261 271 281 287 294 301 306 319 319 310 297 273 248 234 233 229 229 225 223 219 219 222
nan nan nan nan nan nan nan nan nan nan nan nan nan nan nan nan nan nan nan nan nan nan nan nan nan nan nan nan nan nan nan nan nan nan nan nan 224 224 230 234 240 248 259 270 279 291 301 306 307 307 303 296 283 263 242 236 235 230 227 217 215 214 218
nan nan nan nan nan nan nan nan nan nan nan nan nan nan nan nan nan nan nan nan nan nan nan nan nan nan nan nan nan nan nan nan nan nan nan nan nan nan 227 230 237 246 257 270 283 292 299 301 300 299 305 298 300 283 260 239 231 228 226 221 217 215 217
nan nan nan nan nan nan nan nan nan nan nan nan nan nan nan nan nan nan nan nan nan nan nan nan nan nan nan nan nan nan nan nan nan nan nan nan nan nan nan 227 235 244 251 260 272 281 285 287 287 288 293 301 296 283 274 259 247 242 240 232 226 219 218
nan nan nan nan nan nan nan nan nan nan nan nan nan nan nan nan nan nan nan nan nan nan nan nan nan nan nan nan nan nan nan nan nan nan nan nan nan nan nan nan 232 239 248 253 259 266 268 273 280 290 292 291 295 296 283 269 254 243 243 237 229 227 224
nan nan nan nan nan nan nan nan nan nan nan nan nan nan nan nan nan nan nan nan nan nan nan nan nan nan nan nan nan nan nan nan nan nan nan nan nan nan nan nan nan 236 246 251 253 261 268 276 281 290 289 290 298 305 293 275 265 255 247 244 237 231 227
nan nan nan nan nan nan nan nan nan nan nan nan nan nan nan nan nan nan nan nan nan nan nan nan nan nan nan nan nan nan nan nan nan nan nan nan nan 223 221 nan nan 232 239 244 245 252 258 263 270 278 280 286 289 290 291 286 283 266 249 241 239 237 233
nan nan nan nan nan nan nan nan nan nan nan nan nan nan nan nan nan nan nan nan nan nan nan nan nan nan nan nan nan nan nan nan nan nan nan nan 216 216 217 217 222 231 237 244 245 252 252 255 262 267 273 276 281 287 292 294 284 270 251 240 239 240 238
nan nan nan nan nan nan nan nan nan nan nan nan nan nan nan nan nan nan nan nan nan nan nan nan nan nan nan nan nan nan nan nan nan nan 207 206 208 207 207 211 220 228 238 245 249 253 251 253 255 261 265 271 276 282 291 290 281 272 260 244 240 241 239
nan nan nan nan nan nan nan nan nan nan nan nan nan nan nan nan nan nan nan nan nan nan nan nan nan nan nan nan nan nan nan nan nan nan nan nan nan 205 206 210 215 222 232 242 249 252 253 254 253 255 262 267 270 274 283 287 280 276 264 249 241 241 241
nan nan nan nan nan nan nan nan nan nan nan nan nan nan nan nan nan nan nan nan nan nan nan nan 211 216 216 208 202 201 202 204 204 204 204 nan nan 204 208 212 220 227 232 240 248 250 249 246 246 247 254 260 266 271 277 281 281 276 263 254 246 243 242
nan nan nan nan nan nan nan nan nan nan nan nan nan nan nan nan nan nan nan nan nan nan nan 211 206 206 210 208 202 200 200 201 202 200 198 199 202 nan 209 212 219 224 231 239 249 253 249 246 245 245 246 250 253 257 263 272 276 278 270 258 248 245 244
nan nan nan nan nan nan nan nan nan nan nan nan nan nan nan nan nan nan nan nan nan nan 216 208 203 201 207 207 203 201 200 200 199 197 197 199 201 202 205 211 214 218 224 234 244 251 252 250 246 245 244 246 253 260 267 276 279 278 272 263 251 248 248
nan nan nan nan nan nan nan nan nan nan nan nan nan nan nan nan nan nan nan nan nan 221 210 205 198 201 205 207 205 201 200 198 197 197 197 198 199 200 201 201 203 210 216 223 234 244 252 254 251 243 243 247 253 261 266 275 279 280 278 270 260 252 248
nan nan nan nan nan nan nan nan nan nan nan nan nan nan nan nan nan nan nan nan nan nan nan 201 197 200 205 207 206 201 200 199 196 197 197 197 197 198 199 200 200 200 206 216 224 235 248 257 257 247 240 245 252 259 266 273 276 278 278 275 267 256 250
nan nan nan nan nan nan nan nan nan nan nan nan 219 217 nan nan 214 218 nan nan 219 nan nan nan 199 198 204 208 208 202 200 199 198 197 196 196 196 197 198 199 198 199 200 205 217 225 237 248 255 256 249 247 252 259 264 267 268 275 279 276 268 260 254
nan nan nan nan nan nan nan nan nan nan nan 222 225 nan nan nan nan 214 nan nan nan nan nan nan nan 198 202 209 214 211 206 201 199 198 197 197 197 197 198 198 198 198 200 201 206 217 227 241 255 255 247 245 249 253 254 256 263 266 270 269 266 265 259
nan nan nan nan nan nan nan 211 nan nan nan 223 nan nan nan nan nan nan nan nan nan nan nan nan nan nan nan 205 216 215 209 204 201 198 197 nan 197 197 198 199 198 198 197 199 200 208 220 228 233 234 230 230 237 244 249 256 259 261 265 264 264 266 264
nan nan nan nan nan 209 210 214 207 204 221 225 nan nan nan nan nan nan nan nan nan nan nan nan nan 194 nan 212 223 215 208 204 201 198 198 197 197 197 199 199 199 198 199 198 200 204 212 218 225 228 230 233 242 248 250 253 256 260 263 263 265 265 265
nan nan nan nan nan nan 206 nan 206 203 213 nan nan 216 nan nan nan nan nan nan nan nan nan nan nan 193 196 207 223 213 206 200 198 197 195 195 196 197 199 201 201 202 201 201 201 208 212 214 219 223 225 232 240 245 246 249 255 262 265 265 266 267 268
nan nan nan nan nan nan nan nan nan nan nan nan nan nan nan nan nan nan nan nan nan nan nan nan nan 189 197 204 219 209 199 197 196 193 192 194 196 198 201 204 206 207 208 209 213 219 225 221 223 224 223 227 238 243 245 249 256 262 267 269 267 267 269
nan nan nan nan nan nan nan nan nan nan nan nan nan nan nan nan nan nan nan nan nan nan nan nan 195 196 196 208 nan 205 193 192 193 191 190 191 193 197 202 205 208 209 210 216 217 227 230 231 231 233 229 232 239 243 246 251 256 262 268 268 268 269 270
nan nan nan nan nan nan nan nan nan nan nan nan nan nan nan nan nan nan nan nan nan nan nan 199 202 202 201 nan 204 196 189 189 189 190 189 189 192 197 201 201 205 205 207 220 219 229 233 233 238 239 235 233 240 244 247 251 258 264 267 266 267 265 265
nan nan nan nan nan nan nan nan nan nan nan nan nan nan nan nan nan nan nan nan nan nan nan 202 202 200 198 197 197 191 187 186 186 187 188 190 189 192 192 192 196 197 207 216 220 224 228 230 235 237 231 232 240 244 246 250 258 263 262 261 260 260 262
nan nan nan nan nan nan nan nan nan nan nan nan nan nan nan nan nan nan nan nan nan nan nan 201 200 196 193 193 194 191 187 186 185 184 183 184 186 187 188 189 195 198 203 209 210 218 225 227 231 231 226 230 239 244 246 252 258 255 256 258 258 260 264
nan nan nan nan nan nan nan nan nan nan nan nan nan nan nan nan nan nan nan nan nan nan nan 199 195 193 192 192 192 191 186 185 185 184 183 184 186 189 193 196 199 201 206 205 208 215 223 222 222 222 224 231 239 244 247 250 251 252 254 256 259 262 265
nan nan nan nan nan nan nan nan nan nan nan nan nan nan nan nan nan nan nan nan nan nan nan 197 194 193 191 190 190 189 187 184 184 185 186 189 190 191 195 198 199 197 208 204 202 216 220 219 219 217 220 228 236 241 244 244 246 249 252 254 257 261 263
nan nan nan nan nan nan nan nan nan nan nan nan nan nan nan nan nan nan nan nan nan nan nan 196 195 193 192 189 187 188 186 184 185 188 188 189 190 193 195 198 198 199 208 204 205 208 216 219 214 212 216 225 230 234 237 242 245 248 250 253 256 259 260
nan nan nan nan nan nan nan nan nan nan nan nan nan nan nan nan nan nan nan nan nan 203 200 196 194 194 191 188 186 186 186 185 185 189 190 192 194 194 196 198 197 195 205 207 207 208 208 211 210 208 214 220 224 228 234 239 242 243 246 251 255 256 254
nan nan nan nan nan nan nan nan nan nan nan nan nan nan nan nan nan nan nan nan nan nan nan 196 193 191 191 189 187 187 187 186 188 190 191 193 193 194 194 192 195 198 199 210 208 208 208 207 207 210 214 218 222 227 232 237 239 239 243 248 251 250 249
nan nan nan nan nan nan nan nan nan nan nan nan nan nan nan nan nan nan nan nan nan nan nan 197 193 191 192 190 189 188 188 188 191 191 191 191 190 190 193 193 195 200 201 206 209 208 208 209 212 215 218 221 223 227 231 234 235 236 239 243 246 245 246
nan nan nan nan nan nan nan nan nan nan nan nan nan nan nan nan nan nan nan nan nan nan nan 197 194 191 192 192 190 188 189 190 192 192 190 189 189 191 193 192 194 196 203 205 204 209 210 212 215 217 219 219 222 226 228 231 232 234 236 240 238 239 239
nan nan nan nan nan nan nan nan nan nan nan nan nan nan nan nan nan nan nan nan nan nan nan 197 195 194 194 192 190 189 190 191 192 191 189 187 189 191 192 193 194 196 200 202 204 206 209 213 218 219 220 220 221 224 227 230 232 234 237 239 238 234 233
nan nan nan nan nan nan nan nan nan nan nan nan nan nan nan nan nan nan nan nan nan nan nan 197 194 194 195 193 191 189 190 191 193 191 188 187 189 191 192 193 193 195 199 205 207 208 210 213 218 221 222 223 225 226 224 229 235 235 236 236 236 232 231
nan nan nan nan nan nan nan nan nan nan nan nan nan nan nan nan nan nan nan nan nan nan nan nan 194 193 194 195 193 190 189 191 192 191 189 188 190 192 193 195 195 196 197 204 208 208 208 212 216 219 223 223 222 224 227 229 227 231 233 234 233 232 231
nan nan nan nan nan nan nan nan nan nan nan nan nan nan nan nan nan nan nan nan nan nan nan nan 192 194 195 196 195 193 191 191 193 192 190 191 192 194 195 196 198 198 197 202 209 210 211 214 216 218 219 220 220 222 224 224 220 224 226 228 229 230 230